Time,TemperatureF,DewpointF,PressureIn,WindDirection,WindDirectionDegrees,WindSpeedMPH,WindSpeedGustMPH,Humidity,HourlyPrecipIn,Conditions,Clouds,dailyrainin,SoftwareType,DateUTC
2013-04-23 00:01:00,35.3,29.7,30.48,NNW,343,0.0,0.0,80,0.00,CLR,,0.00,WeatherDisplay:10.37,2013-04-23 08:01:00,
2013-04-23 00:06:00,35.3,29.7,30.48,NNW,343,0.0,0.0,80,0.00,CLR,,0.00,WeatherDisplay:10.37,2013-04-23 08:06:00,
2013-04-23 00:11:00,35.4,29.8,30.48,NNW,343,0.0,0.0,80,0.00,CLR,,0.00,WeatherDisplay:10.37,2013-04-23 08:11:00,
2013-04-23 00:16:00,35.4,29.8,30.48,NNW,343,0.0,0.0,80,0.00,CLR,,0.00,WeatherDisplay:10.37,2013-04-23 08:16:00,
2013-04-23 00:21:00,35.4,29.8,30.48,NNW,343,0.0,0.0,80,0.00,CLR,,0.00,WeatherDisplay:10.37,2013-04-23 08:21:00,
2013-04-23 00:26:00,35.3,29.7,30.49,NNW,343,0.0,0.0,80,0.00,CLR,,0.00,WeatherDisplay:10.37,2013-04-23 08:26:00,
2013-04-23 00:31:00,35.3,29.7,30.48,NNW,343,0.0,0.0,80,0.00,CLR,,0.00,WeatherDisplay:10.37,2013-04-23 08:31:00,
2013-04-23 00:36:00,35.3,29.7,30.48,NNW,343,0.0,0.0,80,0.00,CLR,,0.00,WeatherDisplay:10.37,2013-04-23 08:36:00,
2013-04-23 00:41:00,35.6,30.0,30.48,NNW,343,0.0,0.0,80,0.00,CLR,,0.00,WeatherDisplay:10.37,2013-04-23 08:41:00,
2013-04-23 00:46:00,35.6,30.0,30.48,NNW,343,0.0,0.0,80,0.00,CLR,,0.00,WeatherDisplay:10.37,2013-04-23 08:46:00,
2013-04-23 00:51:00,35.6,30.0,30.48,NNW,343,0.0,0.0,80,0.00,CLR,,0.00,WeatherDisplay:10.37,2013-04-23 08:51:00,
2013-04-23 00:56:00,35.7,30.1,30.49,NNW,343,0.0,0.0,80,0.00,CLR,,0.00,WeatherDisplay:10.37,2013-04-23 08:56:00,
2013-04-23 01:01:00,35.7,30.1,30.49,NNW,343,0.0,0.0,80,0.00,CLR,,0.00,WeatherDisplay:10.37,2013-04-23 09:01:00,
2013-04-23 01:06:00,35.6,29.7,30.48,NNW,343,0.0,0.0,79,0.00,CLR,,0.00,WeatherDisplay:10.37,2013-04-23 09:06:00,
2013-04-23 01:11:00,35.5,29.9,30.49,NNW,343,0.0,0.0,80,0.00,CLR,,0.00,WeatherDisplay:10.37,2013-04-23 09:11:00,
2013-04-23 01:16:00,35.4,29.8,30.49,NNW,343,0.0,0.0,80,0.00,CLR,,0.00,WeatherDisplay:10.37,2013-04-23 09:16:00,
2013-04-23 01:21:00,35.3,29.7,30.49,NNW,343,0.0,0.0,80,0.00,CLR,,0.00,WeatherDisplay:10.37,2013-04-23 09:21:00,
2013-04-23 01:26:00,35.3,29.7,30.49,NNW,343,0.0,0.0,80,0.00,CLR,,0.00,WeatherDisplay:10.37,2013-04-23 09:26:00,
2013-04-23 01:31:00,35.2,29.6,30.49,NNW,343,0.0,0.0,80,0.00,CLR,,0.00,WeatherDisplay:10.37,2013-04-23 09:31:00,
2013-04-23 01:36:00,35.0,29.5,30.49,NNW,343,0.0,0.0,80,0.00,CLR,,0.00,WeatherDisplay:10.37,2013-04-23 09:36:00,
2013-04-23 01:41:00,34.9,29.7,30.49,NNW,343,0.0,0.0,81,0.00,CLR,,0.00,WeatherDisplay:10.37,2013-04-23 09:41:00,
2013-04-23 01:46:00,34.8,29.6,30.49,NNW,343,0.0,0.0,81,0.00,CLR,,0.00,WeatherDisplay:10.37,2013-04-23 09:46:00,
2013-04-23 01:51:00,34.7,29.8,30.49,NNW,343,0.0,0.0,82,0.00,CLR,,0.00,WeatherDisplay:10.37,2013-04-23 09:51:00,
2013-04-23 01:56:00,34.6,29.7,30.49,NNW,343,0.0,0.0,82,0.00,CLR,,0.00,WeatherDisplay:10.37,2013-04-23 09:56:00,
2013-04-23 02:01:00,34.5,29.6,30.49,NNW,343,0.0,0.0,82,0.00,CLR,,0.00,WeatherDisplay:10.37,2013-04-23 10:01:00,
2013-04-23 02:06:00,34.5,29.6,30.49,NNW,343,0.0,0.0,82,0.00,CLR,,0.00,WeatherDisplay:10.37,2013-04-23 10:06:00,
2013-04-23 02:11:00,34.5,29.6,30.49,NNW,343,0.0,0.0,82,0.00,CLR,,0.00,WeatherDisplay:10.37,2013-04-23 10:11:00,
2013-04-23 02:16:00,34.6,29.7,30.49,NNW,343,0.0,0.0,82,0.00,CLR,,0.00,WeatherDisplay:10.37,2013-04-23 10:16:00,
2013-04-23 02:21:00,34.7,29.8,30.49,NNW,343,0.0,0.0,82,0.00,CLR,,0.00,WeatherDisplay:10.37,2013-04-23 10:21:00,
2013-04-23 02:26:00,34.8,29.9,30.49,NNW,343,0.0,0.0,82,0.00,CLR,,0.00,WeatherDisplay:10.37,2013-04-23 10:26:00,
2013-04-23 02:31:00,34.8,29.6,30.49,NNW,343,0.0,0.0,81,0.00,CLR,,0.00,WeatherDisplay:10.37,2013-04-23 10:31:00,
2013-04-23 02:36:00,34.9,29.7,30.49,NNW,343,0.0,0.0,81,0.00,CLR,,0.00,WeatherDisplay:10.37,2013-04-23 10:36:00,
2013-04-23 02:41:00,34.9,29.7,30.49,NNW,343,0.0,0.0,81,0.00,CLR,,0.00,WeatherDisplay:10.37,2013-04-23 10:41:00,
2013-04-23 02:46:00,35.0,30.1,30.48,NNW,343,0.0,0.0,82,0.00,CLR,,0.00,WeatherDisplay:10.37,2013-04-23 10:46:00,
2013-04-23 02:51:00,35.2,30.3,30.48,NNW,343,0.0,0.0,82,0.00,CLR,,0.00,WeatherDisplay:10.37,2013-04-23 10:51:00,
2013-04-23 02:56:00,35.3,30.1,30.48,NNW,343,0.0,0.0,81,0.00,CLR,,0.00,WeatherDisplay:10.37,2013-04-23 10:56:00,
2013-04-23 03:01:00,35.3,30.4,30.48,NNW,343,0.0,0.0,82,0.00,CLR,,0.00,WeatherDisplay:10.37,2013-04-23 11:01:00,
2013-04-23 03:06:00,35.6,30.6,30.48,NNW,343,0.0,0.0,82,0.00,CLR,,0.00,WeatherDisplay:10.37,2013-04-23 11:06:00,
2013-04-23 03:11:00,36.0,30.7,30.48,NNW,343,0.0,0.0,81,0.00,CLR,,0.00,WeatherDisplay:10.37,2013-04-23 11:11:00,
2013-04-23 03:16:00,36.2,30.6,30.48,NNW,343,0.0,0.0,80,0.00,CLR,,0.00,WeatherDisplay:10.37,2013-04-23 11:16:00,
2013-04-23 03:21:00,36.3,30.7,30.48,NNW,343,0.0,0.0,80,0.00,CLR,,0.00,WeatherDisplay:10.37,2013-04-23 11:21:00,
2013-04-23 03:26:00,36.4,30.8,30.48,NNW,343,0.0,0.0,80,0.00,CLR,,0.00,WeatherDisplay:10.37,2013-04-23 11:26:00,
2013-04-23 03:31:00,36.6,31.0,30.48,NNW,343,0.0,0.0,80,0.00,CLR,,0.00,WeatherDisplay:10.37,2013-04-23 11:31:00,
2013-04-23 03:36:00,36.8,31.5,30.48,NNW,343,0.0,0.0,81,0.00,CLR,,0.00,WeatherDisplay:10.37,2013-04-23 11:36:00,
2013-04-23 03:41:00,36.6,31.9,30.47,NNW,343,0.0,0.0,83,0.00,CLR,,0.00,WeatherDisplay:10.37,2013-04-23 11:41:00,
2013-04-23 03:46:00,36.4,32.3,30.47,NNW,343,0.0,0.0,85,0.00,CLR,,0.00,WeatherDisplay:10.37,2013-04-23 11:46:00,
2013-04-23 03:51:00,36.2,32.4,30.47,NNW,343,0.0,0.0,86,0.00,CLR,,0.00,WeatherDisplay:10.37,2013-04-23 11:51:00,
2013-04-23 03:56:00,36.0,32.2,30.47,NNW,343,0.0,0.0,86,0.00,CLR,,0.00,WeatherDisplay:10.37,2013-04-23 11:56:00,
2013-04-23 04:01:00,35.8,32.3,30.47,NNW,343,0.0,0.0,87,0.00,CLR,,0.00,WeatherDisplay:10.37,2013-04-23 12:01:00,
2013-04-23 04:06:00,35.5,32.0,30.47,NNW,343,0.0,0.0,87,0.00,CLR,,0.01,WeatherDisplay:10.37,2013-04-23 12:06:00,
2013-04-23 04:11:00,35.1,31.6,30.47,NNW,343,0.0,0.0,87,0.01,RA,,0.01,WeatherDisplay:10.37,2013-04-23 12:11:00,
2013-04-23 04:16:00,34.8,31.6,30.47,NNW,343,0.0,0.0,88,0.01,RA,,0.01,WeatherDisplay:10.37,2013-04-23 12:16:00,
2013-04-23 04:21:00,34.7,31.5,30.47,NNW,343,0.0,0.0,88,0.01,CLR,,0.01,WeatherDisplay:10.37,2013-04-23 12:21:00,
2013-04-23 04:26:00,34.7,31.8,30.47,NNW,343,0.0,0.0,89,0.01,CLR,,0.01,WeatherDisplay:10.37,2013-04-23 12:26:00,
2013-04-23 04:31:00,34.7,31.8,30.47,NNW,343,0.0,0.0,89,0.01,CLR,,0.01,WeatherDisplay:10.37,2013-04-23 12:31:00,
2013-04-23 04:36:00,34.8,31.9,30.47,NNW,343,0.0,0.0,89,0.01,CLR,,0.01,WeatherDisplay:10.37,2013-04-23 12:36:00,
2013-04-23 04:41:00,34.9,32.3,30.47,NNW,343,0.0,0.0,90,0.01,CLR,,0.01,WeatherDisplay:10.37,2013-04-23 12:41:00,
2013-04-23 04:46:00,35.2,32.6,30.47,NNW,343,0.0,0.0,90,0.01,CLR,,0.02,WeatherDisplay:10.37,2013-04-23 12:46:00,
2013-04-23 04:51:00,35.5,33.1,30.46,NNW,343,0.0,0.0,91,0.02,RA,,0.02,WeatherDisplay:10.37,2013-04-23 12:51:00,
2013-04-23 04:56:00,35.7,33.1,30.46,NNW,343,0.0,0.0,90,0.02,RA,,0.02,WeatherDisplay:10.37,2013-04-23 12:56:00,
2013-04-23 05:01:00,35.7,33.1,30.46,NNW,343,0.0,0.0,90,0.03,RA,,0.03,WeatherDisplay:10.37,2013-04-23 13:01:00,
2013-04-23 05:06:00,35.6,33.0,30.46,NNW,343,0.0,0.0,90,0.03,RA,,0.03,WeatherDisplay:10.37,2013-04-23 13:06:00,
2013-04-23 05:11:00,35.1,32.5,30.46,NNW,343,0.0,0.0,90,0.02,CLR,,0.03,WeatherDisplay:10.37,2013-04-23 13:11:00,
2013-04-23 05:16:00,34.5,31.9,30.46,NNW,343,0.0,0.0,90,0.02,CLR,,0.03,WeatherDisplay:10.37,2013-04-23 13:16:00,
2013-04-23 05:21:00,34.3,31.7,30.46,NNW,343,0.0,0.0,90,0.02,CLR,,0.03,WeatherDisplay:10.37,2013-04-23 13:21:00,
2013-04-23 05:26:00,34.0,31.4,30.46,NNW,343,0.0,0.0,90,0.03,RA,,0.04,WeatherDisplay:10.37,2013-04-23 13:26:00,
2013-04-23 05:31:00,33.9,31.6,30.46,NNW,343,0.0,0.0,91,0.03,RA,,0.04,WeatherDisplay:10.37,2013-04-23 13:31:00,
2013-04-23 05:36:00,33.8,31.5,30.46,NNW,343,0.0,0.0,91,0.03,CLR,,0.04,WeatherDisplay:10.37,2013-04-23 13:36:00,
2013-04-23 05:41:00,33.7,31.4,30.45,NNW,343,0.0,0.0,91,0.03,CLR,,0.04,WeatherDisplay:10.37,2013-04-23 13:41:00,
2013-04-23 05:46:00,33.7,31.6,30.45,NNW,343,0.0,0.0,92,0.04,RA,,0.05,WeatherDisplay:10.37,2013-04-23 13:46:00,
2013-04-23 05:51:00,33.8,31.7,30.45,NNW,343,0.0,0.0,92,0.03,RA,,0.05,WeatherDisplay:10.37,2013-04-23 13:51:00,
2013-04-23 05:56:00,33.8,31.7,30.45,NNW,343,0.0,0.0,92,0.03,CLR,,0.05,WeatherDisplay:10.37,2013-04-23 13:56:00,
2013-04-23 06:01:00,33.7,31.6,30.45,NNW,343,0.0,0.0,92,0.02,CLR,,0.05,WeatherDisplay:10.37,2013-04-23 14:01:00,
2013-04-23 06:06:00,33.7,31.6,30.45,NNW,343,0.0,0.0,92,0.03,RA,,0.06,WeatherDisplay:10.37,2013-04-23 14:06:00,
2013-04-23 06:11:00,33.7,31.6,30.44,NNW,343,0.0,0.0,92,0.03,RA,,0.06,WeatherDisplay:10.37,2013-04-23 14:11:00,
2013-04-23 06:16:00,33.6,31.8,30.44,NNW,343,0.0,0.0,93,0.03,CLR,,0.06,WeatherDisplay:10.37,2013-04-23 14:16:00,
2013-04-23 06:21:00,33.6,31.5,30.44,NNW,343,0.0,0.0,92,0.03,CLR,,0.06,WeatherDisplay:10.37,2013-04-23 14:21:00,
2013-04-23 06:26:00,33.6,31.8,30.44,NNW,343,0.0,0.0,93,0.02,CLR,,0.06,WeatherDisplay:10.37,2013-04-23 14:26:00,
2013-04-23 06:31:00,33.6,31.8,30.44,NNW,343,0.0,0.0,93,0.02,CLR,,0.06,WeatherDisplay:10.37,2013-04-23 14:31:00,
2013-04-23 06:36:00,33.6,31.8,30.44,NNW,343,0.0,0.0,93,0.03,RA,,0.07,WeatherDisplay:10.37,2013-04-23 14:36:00,
2013-04-23 06:41:00,33.6,31.8,30.44,NNW,343,0.0,0.0,93,0.03,RA,,0.07,WeatherDisplay:10.37,2013-04-23 14:41:00,
2013-04-23 06:46:00,33.6,31.8,30.44,NNW,343,0.0,0.0,93,0.02,CLR,,0.07,WeatherDisplay:10.37,2013-04-23 14:46:00,
2013-04-23 06:51:00,33.6,31.8,30.44,NNW,343,0.0,0.0,93,0.02,CLR,,0.07,WeatherDisplay:10.37,2013-04-23 14:51:00,
2013-04-23 06:56:00,33.7,31.9,30.43,NNW,343,0.0,0.0,93,0.02,CLR,,0.07,WeatherDisplay:10.37,2013-04-23 14:56:00,
2013-04-23 07:01:00,33.7,31.9,30.43,NNW,343,0.0,0.0,93,0.02,CLR,,0.07,WeatherDisplay:10.37,2013-04-23 15:01:00,
2013-04-23 07:06:00,33.8,32.0,30.43,NNW,343,0.0,0.0,93,0.01,CLR,,0.07,WeatherDisplay:10.37,2013-04-23 15:06:00,
2013-04-23 07:11:00,33.8,32.0,30.43,NNW,343,0.0,0.0,93,0.01,CLR,,0.08,WeatherDisplay:10.37,2013-04-23 15:11:00,
2013-04-23 07:16:00,33.9,32.1,30.43,NNW,343,0.0,0.0,93,0.02,RA,,0.08,WeatherDisplay:10.37,2013-04-23 15:16:00,
2013-04-23 07:21:00,33.9,32.1,30.43,NNW,343,0.0,0.0,93,0.02,RA,,0.08,WeatherDisplay:10.37,2013-04-23 15:21:00,
2013-04-23 07:26:00,34.0,32.2,30.44,NNW,343,0.0,0.0,93,0.02,CLR,,0.08,WeatherDisplay:10.37,2013-04-23 15:26:00,
2013-04-23 07:31:00,34.1,32.3,30.44,NNW,343,0.0,0.0,93,0.02,CLR,,0.08,WeatherDisplay:10.37,2013-04-23 15:31:00,
2013-04-23 07:36:00,34.1,32.3,30.44,NNW,343,0.0,0.0,93,0.02,RA,,0.09,WeatherDisplay:10.37,2013-04-23 15:36:00,
2013-04-23 07:41:00,34.2,32.4,30.44,NNW,343,0.0,0.0,93,0.02,RA,,0.09,WeatherDisplay:10.37,2013-04-23 15:41:00,
2013-04-23 07:46:00,34.3,32.8,30.44,NNW,343,0.0,0.0,94,0.02,,,0.09,WeatherDisplay:10.37,2013-04-23 15:46:00,
2013-04-23 07:51:00,34.4,32.9,30.44,NNW,343,0.0,0.0,94,0.02,CLR,,0.09,WeatherDisplay:10.37,2013-04-23 15:51:00,
2013-04-23 07:56:00,34.4,32.9,30.44,NNW,343,0.0,0.0,94,0.03,RA,,0.10,WeatherDisplay:10.37,2013-04-23 15:56:00,
2013-04-23 08:01:00,34.4,32.9,30.44,NNW,343,0.0,0.0,94,0.03,RA,,0.10,WeatherDisplay:10.37,2013-04-23 16:01:00,
2013-04-23 08:06:00,34.4,32.9,30.44,NNW,343,0.0,0.0,94,0.03,,,0.10,WeatherDisplay:10.37,2013-04-23 16:06:00,
2013-04-23 08:11:00,34.5,33.0,30.44,NNW,343,0.0,0.0,94,0.04,RA,,0.11,WeatherDisplay:10.37,2013-04-23 16:11:00,
2013-04-23 08:16:00,34.4,32.9,30.44,NNW,343,0.0,0.0,94,0.03,RA,,0.11,WeatherDisplay:10.37,2013-04-23 16:16:00,
2013-04-23 08:21:00,34.4,32.9,30.44,NNW,343,0.0,0.0,94,0.03,CLR,,0.11,WeatherDisplay:10.37,2013-04-23 16:21:00,
2013-04-23 08:26:00,34.4,32.9,30.44,NNW,343,0.0,0.0,94,0.04,RA,,0.12,WeatherDisplay:10.37,2013-04-23 16:26:00,
2013-04-23 08:31:00,34.4,32.9,30.44,NNW,343,0.0,0.0,94,0.04,RA,,0.12,WeatherDisplay:10.37,2013-04-23 16:31:00,
2013-04-23 08:36:00,34.4,32.9,30.44,NNW,343,0.0,0.0,94,0.03,CLR,,0.12,WeatherDisplay:10.37,2013-04-23 16:36:00,
2013-04-23 08:41:00,34.4,32.9,30.44,NNW,343,0.0,0.0,94,0.03,CLR,,0.12,WeatherDisplay:10.37,2013-04-23 16:41:00,
2013-04-23 08:46:00,34.4,32.9,30.44,NNW,343,0.0,0.0,94,0.04,RA,,0.13,WeatherDisplay:10.37,2013-04-23 16:46:00,
2013-04-23 08:51:00,34.4,32.9,30.44,NNW,343,0.0,0.0,94,0.04,RA,,0.13,WeatherDisplay:10.37,2013-04-23 16:51:00,
2013-04-23 08:56:00,34.7,33.2,30.44,NNW,343,0.0,0.0,94,0.03,CLR,,0.13,WeatherDisplay:10.37,2013-04-23 16:56:00,
2013-04-23 09:01:00,34.8,33.2,30.44,NNW,343,0.0,0.0,94,0.03,CLR,,0.13,WeatherDisplay:10.37,2013-04-23 17:01:00,
2013-04-23 09:06:00,34.9,33.3,30.44,NNW,343,0.0,0.0,94,0.03,CLR,,0.13,WeatherDisplay:10.37,2013-04-23 17:06:00,
2013-04-23 09:11:00,34.9,33.3,30.44,NNW,343,0.0,0.0,94,0.03,RA,,0.14,WeatherDisplay:10.37,2013-04-23 17:11:00,
2013-04-23 09:16:00,34.9,33.3,30.44,NNW,343,0.0,0.0,94,0.03,RA,,0.14,WeatherDisplay:10.37,2013-04-23 17:16:00,
2013-04-23 09:21:00,34.9,33.3,30.44,NNW,343,0.0,0.0,94,0.03,,,0.14,WeatherDisplay:10.37,2013-04-23 17:21:00,
2013-04-23 09:26:00,35.0,33.4,30.44,NNW,343,0.0,0.0,94,0.03,RA,,0.15,WeatherDisplay:10.37,2013-04-23 17:26:00,
2013-04-23 09:31:00,35.1,33.5,30.43,NNW,343,0.0,0.0,94,0.03,RA,,0.15,WeatherDisplay:10.37,2013-04-23 17:31:00,
2013-04-23 09:36:00,35.2,33.6,30.43,NNW,343,0.0,0.0,94,0.03,CLR,,0.15,WeatherDisplay:10.37,2013-04-23 17:36:00,
2013-04-23 09:41:00,35.3,33.7,30.44,NNW,343,0.0,0.0,94,0.03,CLR,,0.15,WeatherDisplay:10.37,2013-04-23 17:41:00,
2013-04-23 09:46:00,35.5,33.9,30.43,NNW,343,0.0,0.0,94,0.03,RA,,0.16,WeatherDisplay:10.37,2013-04-23 17:46:00,
2013-04-23 09:51:00,35.5,33.9,30.43,NNW,343,0.0,0.0,94,0.03,RA,,0.16,WeatherDisplay:10.37,2013-04-23 17:51:00,
2013-04-23 09:56:00,35.5,33.9,30.43,NNW,343,0.0,0.0,94,0.03,CLR,,0.16,WeatherDisplay:10.37,2013-04-23 17:56:00,
2013-04-23 10:01:00,35.5,33.9,30.43,NNW,343,0.0,0.0,94,0.03,CLR,,0.16,WeatherDisplay:10.37,2013-04-23 18:01:00,
2013-04-23 10:06:00,35.7,34.1,30.43,NNW,343,0.0,0.0,94,0.04,RA,,0.17,WeatherDisplay:10.37,2013-04-23 18:06:00,
2013-04-23 10:11:00,35.8,34.2,30.43,NNW,343,0.0,0.0,94,0.03,RA,,0.17,WeatherDisplay:10.37,2013-04-23 18:11:00,
2013-04-23 10:16:00,36.0,34.4,30.43,NNW,343,0.0,0.0,94,0.03,CLR,,0.17,WeatherDisplay:10.37,2013-04-23 18:16:00,
2013-04-23 10:21:00,36.2,34.4,30.43,NNW,343,0.0,0.0,93,0.03,CLR,,0.17,WeatherDisplay:10.37,2013-04-23 18:21:00,
2013-04-23 10:26:00,36.2,34.4,30.43,NNW,343,0.0,0.0,93,0.02,CLR,,0.17,WeatherDisplay:10.37,2013-04-23 18:26:00,
2013-04-23 10:31:00,36.3,34.5,30.43,NNW,343,0.0,0.0,93,0.02,CLR,,0.17,WeatherDisplay:10.37,2013-04-23 18:31:00,
2013-04-23 10:36:00,36.4,34.6,30.43,NNW,343,0.0,0.0,93,0.02,CLR,,0.17,WeatherDisplay:10.37,2013-04-23 18:36:00,
2013-04-23 10:41:00,36.5,34.7,30.42,NNW,343,0.0,0.0,93,0.02,CLR,,0.17,WeatherDisplay:10.37,2013-04-23 18:41:00,
2013-04-23 10:46:00,36.6,34.8,30.42,NNW,343,0.0,0.0,93,0.01,CLR,,0.17,WeatherDisplay:10.37,2013-04-23 18:46:00,
2013-04-23 10:51:00,36.6,34.5,30.42,NNW,343,0.0,0.0,92,0.02,RA,,0.18,WeatherDisplay:10.37,2013-04-23 18:51:00,
2013-04-23 10:56:00,36.6,34.5,30.42,NNW,343,0.0,0.0,92,0.02,RA,,0.18,WeatherDisplay:10.37,2013-04-23 18:56:00,
2013-04-23 11:01:00,36.6,34.5,30.42,NNW,343,0.0,0.0,92,0.02,CLR,,0.18,WeatherDisplay:10.37,2013-04-23 19:01:00,
2013-04-23 11:06:00,36.6,34.5,30.42,NNW,343,0.0,0.0,92,0.01,CLR,,0.18,WeatherDisplay:10.37,2013-04-23 19:06:00,
2013-04-23 11:11:00,36.6,34.5,30.42,NNW,343,0.0,0.0,92,0.01,CLR,,0.18,WeatherDisplay:10.37,2013-04-23 19:11:00,
2013-04-23 11:16:00,36.8,34.7,30.42,NNW,343,0.0,0.0,92,0.01,CLR,,0.18,WeatherDisplay:10.37,2013-04-23 19:16:00,
2013-04-23 11:21:00,37.0,34.9,30.42,NNW,343,0.0,0.0,92,0.02,RA,,0.19,WeatherDisplay:10.37,2013-04-23 19:21:00,
2013-04-23 11:26:00,37.4,35.6,30.42,NNW,343,0.0,0.0,93,0.02,RA,,0.19,WeatherDisplay:10.37,2013-04-23 19:26:00,
2013-04-23 11:31:00,37.5,35.4,30.42,NNW,343,0.0,0.0,92,0.02,,,0.19,WeatherDisplay:10.37,2013-04-23 19:31:00,
2013-04-23 11:36:00,37.4,35.3,30.42,NNW,343,0.0,0.0,92,0.02,CLR,,0.19,WeatherDisplay:10.37,2013-04-23 19:36:00,
2013-04-23 11:41:00,37.3,34.9,30.41,NNW,343,0.0,0.0,91,0.02,CLR,,0.19,WeatherDisplay:10.37,2013-04-23 19:41:00,
2013-04-23 11:46:00,37.3,34.9,30.41,NNW,343,0.0,0.0,91,0.02,CLR,,0.19,WeatherDisplay:10.37,2013-04-23 19:46:00,
2013-04-23 11:51:00,37.6,35.5,30.41,NNW,343,0.0,0.0,92,0.01,CLR,,0.19,WeatherDisplay:10.37,2013-04-23 19:51:00,
2013-04-23 11:56:00,38.0,35.9,30.41,NNW,343,0.0,0.0,92,0.01,CLR,,0.19,WeatherDisplay:10.37,2013-04-23 19:56:00,
2013-04-23 12:01:00,38.3,36.2,30.41,NNW,343,0.0,0.0,92,0.01,CLR,,0.19,WeatherDisplay:10.37,2013-04-23 20:01:00,
2013-04-23 12:06:00,38.6,36.5,30.41,NNW,343,0.0,0.0,92,0.01,CLR,,0.19,WeatherDisplay:10.37,2013-04-23 20:06:00,
2013-04-23 12:11:00,38.8,36.7,30.41,NNW,343,0.0,0.0,92,0.01,CLR,,0.19,WeatherDisplay:10.37,2013-04-23 20:11:00,
2013-04-23 12:16:00,38.8,36.4,30.41,NNW,343,0.0,0.0,91,0.01,CLR,,0.19,WeatherDisplay:10.37,2013-04-23 20:16:00,
2013-04-23 12:21:00,38.9,36.5,30.41,NNW,343,0.0,0.0,91,0.00,CLR,,0.19,WeatherDisplay:10.37,2013-04-23 20:21:00,
2013-04-23 12:26:00,39.1,36.7,30.41,NNW,343,0.0,0.0,91,0.00,CLR,,0.19,WeatherDisplay:10.37,2013-04-23 20:26:00,
2013-04-23 12:31:00,39.5,37.1,30.40,NNW,343,0.0,0.0,91,0.00,CLR,,0.19,WeatherDisplay:10.37,2013-04-23 20:31:00,
2013-04-23 12:36:00,39.9,37.5,30.40,NNW,343,0.0,0.0,91,0.00,CLR,,0.19,WeatherDisplay:10.37,2013-04-23 20:36:00,
2013-04-23 12:41:00,40.4,37.7,30.40,NNW,343,0.0,0.0,90,0.00,CLR,,0.19,WeatherDisplay:10.37,2013-04-23 20:41:00,
2013-04-23 12:46:00,40.7,37.4,30.40,NNW,343,0.0,0.0,88,0.00,CLR,,0.19,WeatherDisplay:10.37,2013-04-23 20:46:00,
2013-04-23 12:51:00,40.9,37.0,30.40,NNW,343,0.0,0.0,86,0.00,CLR,,0.19,WeatherDisplay:10.37,2013-04-23 20:51:00,
2013-04-23 12:56:00,40.9,36.4,30.40,NNW,343,0.0,0.0,84,0.00,CLR,,0.19,WeatherDisplay:10.37,2013-04-23 20:56:00,
2013-04-23 13:01:00,40.9,36.4,30.40,NNW,343,0.0,0.0,84,0.00,CLR,,0.19,WeatherDisplay:10.37,2013-04-23 21:01:00,
2013-04-23 13:06:00,41.2,36.1,30.40,NNW,343,0.0,0.0,82,0.00,CLR,,0.19,WeatherDisplay:10.37,2013-04-23 21:06:00,
2013-04-23 13:11:00,41.5,36.7,30.40,NNW,343,0.0,0.0,83,0.00,CLR,,0.19,WeatherDisplay:10.37,2013-04-23 21:11:00,
2013-04-23 13:16:00,41.9,37.1,30.40,NNW,343,0.0,0.0,83,0.00,CLR,,0.19,WeatherDisplay:10.37,2013-04-23 21:16:00,
2013-04-23 13:21:00,42.2,36.8,30.39,NNW,343,0.0,0.0,81,0.00,CLR,,0.19,WeatherDisplay:10.37,2013-04-23 21:21:00,
2013-04-23 13:26:00,42.3,36.9,30.39,NNW,343,0.0,0.0,81,0.00,CLR,,0.19,WeatherDisplay:10.37,2013-04-23 21:26:00,
2013-04-23 13:31:00,42.1,35.7,30.39,NNW,343,0.0,0.0,78,0.00,CLR,,0.19,WeatherDisplay:10.37,2013-04-23 21:31:00,
2013-04-23 13:36:00,42.1,35.7,30.39,NNW,343,0.0,0.0,78,0.00,CLR,,0.19,WeatherDisplay:10.37,2013-04-23 21:36:00,
2013-04-23 13:41:00,42.1,35.4,30.39,NNW,343,0.0,0.0,77,0.00,CLR,,0.19,WeatherDisplay:10.37,2013-04-23 21:41:00,
2013-04-23 13:46:00,42.3,34.9,30.39,NNW,343,0.0,0.0,75,0.00,CLR,,0.19,WeatherDisplay:10.37,2013-04-23 21:46:00,
2013-04-23 13:51:00,42.2,35.2,30.39,NNW,343,0.0,0.0,76,0.00,CLR,,0.19,WeatherDisplay:10.37,2013-04-23 21:51:00,
2013-04-23 13:56:00,42.2,34.8,30.38,NNW,343,0.0,0.0,75,0.00,CLR,,0.19,WeatherDisplay:10.37,2013-04-23 21:56:00,
2013-04-23 14:01:00,42.2,34.5,30.39,NNW,344,0.0,0.0,74,0.00,CLR,,0.19,WeatherDisplay:10.37,2013-04-23 22:01:00,
2013-04-23 14:06:00,42.2,35.2,30.38,NNW,344,0.0,0.0,76,0.00,CLR,,0.19,WeatherDisplay:10.37,2013-04-23 22:06:00,
2013-04-23 14:11:00,42.1,35.4,30.38,NNW,344,0.0,0.0,77,0.00,CLR,,0.19,WeatherDisplay:10.37,2013-04-23 22:11:00,
2013-04-23 14:16:00,42.0,35.0,30.38,NNW,344,0.0,0.0,76,0.00,CLR,,0.19,WeatherDisplay:10.37,2013-04-23 22:16:00,
2013-04-23 14:21:00,42.1,35.1,30.37,NNW,344,0.0,0.0,76,0.00,CLR,,0.19,WeatherDisplay:10.37,2013-04-23 22:21:00,
2013-04-23 14:26:00,42.2,34.8,30.38,NNW,344,0.0,0.0,75,0.00,CLR,,0.19,WeatherDisplay:10.37,2013-04-23 22:26:00,
2013-04-23 14:31:00,42.2,34.8,30.38,NNW,344,0.0,0.0,75,0.00,CLR,,0.19,WeatherDisplay:10.37,2013-04-23 22:31:00,
2013-04-23 14:36:00,42.1,35.7,30.38,NNW,344,0.0,0.0,78,0.00,CLR,,0.19,WeatherDisplay:10.37,2013-04-23 22:36:00,
2013-04-23 14:41:00,42.2,34.2,30.37,NNW,344,0.0,0.0,73,0.00,CLR,,0.19,WeatherDisplay:10.37,2013-04-23 22:41:00,
2013-04-23 14:46:00,42.4,35.7,30.37,NNW,344,0.0,0.0,77,0.00,CLR,,0.19,WeatherDisplay:10.37,2013-04-23 22:46:00,
2013-04-23 14:51:00,42.6,35.9,30.37,NNW,344,0.0,0.0,77,0.00,CLR,,0.19,WeatherDisplay:10.37,2013-04-23 22:51:00,
2013-04-23 14:56:00,42.4,35.7,30.37,NNW,344,0.0,0.0,77,0.00,CLR,,0.19,WeatherDisplay:10.37,2013-04-23 22:56:00,
2013-04-23 15:01:00,42.4,35.7,30.37,NNW,344,0.0,0.0,77,0.00,CLR,,0.19,WeatherDisplay:10.37,2013-04-23 23:01:00,
2013-04-23 15:06:00,42.4,35.7,30.37,NNW,344,0.0,0.0,77,0.00,CLR,,0.19,WeatherDisplay:10.37,2013-04-23 23:06:00,
2013-04-23 15:11:00,42.5,34.5,30.37,NNW,344,0.0,0.0,73,0.00,CLR,,0.19,WeatherDisplay:10.37,2013-04-23 23:11:00,
2013-04-23 15:16:00,42.7,35.0,30.37,NNW,344,0.0,0.0,74,0.00,CLR,,0.19,WeatherDisplay:10.37,2013-04-23 23:16:00,
2013-04-23 15:21:00,42.7,34.6,30.36,NNW,344,0.0,0.0,73,0.00,CLR,,0.19,WeatherDisplay:10.37,2013-04-23 23:21:00,
2013-04-23 15:26:00,42.9,34.8,30.36,NNW,344,0.0,0.0,73,0.00,CLR,,0.19,WeatherDisplay:10.37,2013-04-23 23:26:00,
2013-04-23 15:31:00,43.0,35.3,30.36,NNW,344,0.0,0.0,74,0.00,CLR,,0.19,WeatherDisplay:10.37,2013-04-23 23:31:00,
2013-04-23 15:36:00,42.7,34.3,30.36,NNW,344,0.0,0.0,72,0.00,CLR,,0.19,WeatherDisplay:10.37,2013-04-23 23:36:00,
2013-04-23 15:41:00,42.7,35.0,30.36,NNW,345,0.0,0.0,74,0.00,CLR,,0.19,WeatherDisplay:10.37,2013-04-23 23:41:00,
2013-04-23 15:46:00,42.8,34.4,30.36,NNW,344,0.0,0.0,72,0.00,CLR,,0.19,WeatherDisplay:10.37,2013-04-23 23:46:00,
2013-04-23 15:51:00,42.7,34.6,30.35,NNW,344,0.0,0.0,73,0.00,CLR,,0.19,WeatherDisplay:10.37,2013-04-23 23:51:00,
2013-04-23 15:56:00,42.6,34.5,30.35,NNW,344,0.0,0.0,73,0.00,CLR,,0.19,WeatherDisplay:10.37,2013-04-23 23:56:00,
2013-04-23 16:01:00,42.6,34.5,30.35,NNW,345,0.0,0.0,73,0.00,CLR,,0.19,WeatherDisplay:10.37,2013-04-24 00:01:00,
2013-04-23 16:06:00,42.7,34.6,30.35,NNW,345,0.0,0.0,73,0.00,CLR,,0.19,WeatherDisplay:10.37,2013-04-24 00:06:00,
2013-04-23 16:11:00,42.8,35.1,30.35,NNW,345,0.0,0.0,74,0.00,CLR,,0.19,WeatherDisplay:10.37,2013-04-24 00:11:00,
2013-04-23 16:16:00,42.8,34.4,30.34,NNW,345,0.0,0.0,72,0.00,CLR,,0.19,WeatherDisplay:10.37,2013-04-24 00:16:00,
2013-04-23 16:21:00,42.9,34.5,30.34,NNW,345,0.0,0.0,72,0.00,CLR,,0.19,WeatherDisplay:10.37,2013-04-24 00:21:00,
2013-04-23 16:26:00,42.9,34.8,30.34,NNW,345,0.0,0.0,73,0.00,CLR,,0.19,WeatherDisplay:10.37,2013-04-24 00:26:00,
2013-04-23 16:31:00,42.8,35.8,30.34,NNW,345,0.0,0.0,76,0.00,CLR,,0.19,WeatherDisplay:10.37,2013-04-24 00:31:00,
2013-04-23 16:36:00,42.8,34.7,30.34,NNW,345,0.0,0.0,73,0.00,CLR,,0.19,WeatherDisplay:10.37,2013-04-24 00:36:00,
2013-04-23 16:41:00,42.5,35.8,30.34,NNW,345,0.0,0.0,77,0.00,CLR,,0.19,WeatherDisplay:10.37,2013-04-24 00:41:00,
2013-04-23 16:46:00,42.1,34.4,30.34,NNW,344,0.0,0.0,74,0.00,CLR,,0.19,WeatherDisplay:10.37,2013-04-24 00:46:00,
2013-04-23 16:51:00,42.0,35.0,30.33,NNW,345,0.0,0.0,76,0.00,CLR,,0.19,WeatherDisplay:10.37,2013-04-24 00:51:00,
2013-04-23 16:56:00,42.1,35.7,30.33,NNW,345,0.0,0.0,78,0.00,CLR,,0.19,WeatherDisplay:10.37,2013-04-24 00:56:00,
2013-04-23 17:01:00,42.0,35.3,30.33,NNW,345,0.0,0.0,77,0.01,RA,,0.20,WeatherDisplay:10.37,2013-04-24 01:01:00,
2013-04-23 17:06:00,41.9,34.9,30.33,NNW,345,0.0,0.0,76,0.01,RA,,0.20,WeatherDisplay:10.37,2013-04-24 01:06:00,
2013-04-23 17:11:00,42.0,35.6,30.33,NNW,345,0.0,0.0,78,0.01,CLR,,0.20,WeatherDisplay:10.37,2013-04-24 01:11:00,
2013-04-23 17:16:00,42.1,35.1,30.33,NNW,345,0.0,0.0,76,0.01,CLR,,0.20,WeatherDisplay:10.37,2013-04-24 01:16:00,
2013-04-23 17:21:00,42.3,35.3,30.32,NNW,344,0.0,0.0,76,0.01,CLR,,0.20,WeatherDisplay:10.37,2013-04-24 01:21:00,
2013-04-23 17:26:00,42.5,35.1,30.32,NNW,344,0.0,0.0,75,0.01,CLR,,0.20,WeatherDisplay:10.37,2013-04-24 01:26:00,
2013-04-23 17:31:00,42.4,35.4,30.32,NNW,345,0.0,0.0,76,0.01,CLR,,0.20,WeatherDisplay:10.37,2013-04-24 01:31:00,
2013-04-23 17:36:00,42.2,35.5,30.32,NNW,345,0.0,0.0,77,0.01,CLR,,0.20,WeatherDisplay:10.37,2013-04-24 01:36:00,
2013-04-23 17:41:00,42.0,36.0,30.32,NNW,345,0.0,0.0,79,0.01,CLR,,0.20,WeatherDisplay:10.37,2013-04-24 01:41:00,
2013-04-23 17:46:00,42.0,36.3,30.32,NNW,345,0.0,0.0,80,0.01,CLR,,0.20,WeatherDisplay:10.37,2013-04-24 01:46:00,
2013-04-23 17:51:00,41.9,36.5,30.32,NNW,345,0.0,0.0,81,0.01,CLR,,0.20,WeatherDisplay:10.37,2013-04-24 01:51:00,
2013-04-23 17:56:00,41.6,35.6,30.32,NNW,345,0.0,0.0,79,0.01,CLR,,0.20,WeatherDisplay:10.37,2013-04-24 01:56:00,
2013-04-23 18:01:00,41.5,36.1,30.32,NNW,344,0.0,0.0,81,0.00,CLR,,0.20,WeatherDisplay:10.37,2013-04-24 02:01:00,
2013-04-23 18:06:00,41.3,35.9,30.32,NNW,344,0.0,0.0,81,0.00,CLR,,0.20,WeatherDisplay:10.37,2013-04-24 02:06:00,
2013-04-23 18:11:00,41.2,36.1,30.32,NNW,345,0.0,0.0,82,0.00,CLR,,0.20,WeatherDisplay:10.37,2013-04-24 02:11:00,
2013-04-23 18:16:00,41.2,36.1,30.31,NNW,345,0.0,0.0,82,0.00,CLR,,0.20,WeatherDisplay:10.37,2013-04-24 02:16:00,
2013-04-23 18:21:00,41.2,36.1,30.31,NNW,345,0.0,0.0,82,0.00,CLR,,0.20,WeatherDisplay:10.37,2013-04-24 02:21:00,
2013-04-23 18:26:00,41.0,36.2,30.31,NNW,345,0.0,0.0,83,0.00,CLR,,0.20,WeatherDisplay:10.37,2013-04-24 02:26:00,
2013-04-23 18:31:00,40.7,35.9,30.31,NNW,345,0.0,0.0,83,0.00,CLR,,0.20,WeatherDisplay:10.37,2013-04-24 02:31:00,
2013-04-23 18:36:00,40.6,35.8,30.31,NNW,345,0.0,0.0,83,0.00,CLR,,0.20,WeatherDisplay:10.37,2013-04-24 02:36:00,
2013-04-23 18:41:00,40.4,35.9,30.31,NNW,345,0.0,0.0,84,0.00,CLR,,0.20,WeatherDisplay:10.37,2013-04-24 02:41:00,
2013-04-23 18:46:00,40.2,35.8,30.31,NNW,345,0.0,0.0,84,0.00,CLR,,0.21,WeatherDisplay:10.37,2013-04-24 02:46:00,
2013-04-23 18:51:00,40.2,35.8,30.31,NNW,344,0.0,0.0,84,0.01,RA,,0.21,WeatherDisplay:10.37,2013-04-24 02:51:00,
2013-04-23 18:56:00,40.1,36.0,30.31,NNW,345,0.0,0.0,85,0.01,RA,,0.21,WeatherDisplay:10.37,2013-04-24 02:56:00,
2013-04-23 19:01:00,40.0,35.6,30.30,NNW,345,0.0,0.0,84,0.01,CLR,,0.21,WeatherDisplay:10.37,2013-04-24 03:01:00,
2013-04-23 19:07:00,40.0,35.6,30.31,NNW,345,0.0,0.0,84,0.01,CLR,,0.21,WeatherDisplay:10.37,2013-04-24 03:07:00,
2013-04-23 19:12:00,40.1,36.0,30.31,NNW,345,0.0,0.0,85,0.01,CLR,,0.21,WeatherDisplay:10.37,2013-04-24 03:12:00,
2013-04-23 19:17:00,39.9,36.1,30.31,NNW,345,0.0,0.0,86,0.01,CLR,,0.21,WeatherDisplay:10.37,2013-04-24 03:17:00,
2013-04-23 19:22:00,39.8,36.0,30.31,NNW,345,0.0,0.0,86,0.01,CLR,,0.21,WeatherDisplay:10.37,2013-04-24 03:22:00,
2013-04-23 19:27:00,39.7,35.9,30.30,NNW,345,0.0,0.0,86,0.01,CLR,,0.21,WeatherDisplay:10.37,2013-04-24 03:27:00,
2013-04-23 19:32:00,39.8,35.7,30.30,NNW,345,0.0,0.0,85,0.01,CLR,,0.21,WeatherDisplay:10.37,2013-04-24 03:32:00,
2013-04-23 19:37:00,39.7,35.6,30.31,NNW,345,0.0,0.0,85,0.01,CLR,,0.21,WeatherDisplay:10.37,2013-04-24 03:37:00,
2013-04-23 19:42:00,39.6,35.8,30.30,NNW,345,0.0,0.0,86,0.01,CLR,,0.21,WeatherDisplay:10.37,2013-04-24 03:42:00,
2013-04-23 19:47:00,39.6,35.8,30.30,NNW,345,0.0,0.0,86,0.00,CLR,,0.21,WeatherDisplay:10.37,2013-04-24 03:47:00,
2013-04-23 19:52:00,39.5,35.7,30.30,NNW,345,0.0,0.0,86,0.00,CLR,,0.21,WeatherDisplay:10.37,2013-04-24 03:52:00,
2013-04-23 19:57:00,39.6,35.5,30.30,NNW,345,0.0,0.0,85,0.00,CLR,,0.21,WeatherDisplay:10.37,2013-04-24 03:57:00,
2013-04-23 20:01:00,39.7,35.9,30.30,NNW,345,0.0,0.0,86,0.01,RA,,0.22,WeatherDisplay:10.37,2013-04-24 04:01:00,
2013-04-23 20:06:00,39.5,36.0,30.31,NNW,345,0.0,0.0,87,0.01,RA,,0.22,WeatherDisplay:10.37,2013-04-24 04:06:00,
2013-04-23 20:11:00,39.4,35.9,30.30,NNW,345,0.0,0.0,87,0.01,,,0.22,WeatherDisplay:10.37,2013-04-24 04:11:00,
2013-04-23 20:16:00,39.4,35.0,30.30,NNW,345,0.0,0.0,84,0.01,CLR,,0.22,WeatherDisplay:10.37,2013-04-24 04:16:00,
2013-04-23 20:21:00,39.5,35.7,30.30,NNW,344,0.0,0.0,86,0.01,CLR,,0.22,WeatherDisplay:10.37,2013-04-24 04:21:00,
2013-04-23 20:26:00,39.4,35.9,30.30,NNW,345,0.0,0.0,87,0.01,CLR,,0.22,WeatherDisplay:10.37,2013-04-24 04:26:00,
2013-04-23 20:31:00,39.3,35.8,30.30,NNW,344,0.0,0.0,87,0.01,CLR,,0.22,WeatherDisplay:10.37,2013-04-24 04:31:00,
2013-04-23 20:36:00,39.2,35.9,30.30,NNW,345,0.0,0.0,88,0.01,CLR,,0.22,WeatherDisplay:10.37,2013-04-24 04:36:00,
2013-04-23 20:41:00,39.2,35.9,30.30,NNW,345,0.0,0.0,88,0.01,CLR,,0.22,WeatherDisplay:10.37,2013-04-24 04:41:00,
2013-04-23 20:46:00,39.1,35.8,30.30,NNW,345,0.0,0.0,88,0.02,RA,,0.23,WeatherDisplay:10.37,2013-04-24 04:46:00,
2013-04-23 20:51:00,39.1,35.8,30.30,NNW,344,0.0,0.0,88,0.02,RA,,0.23,WeatherDisplay:10.37,2013-04-24 04:51:00,
2013-04-23 20:56:00,38.9,35.9,30.30,NNW,344,0.0,0.0,89,0.02,CLR,,0.23,WeatherDisplay:10.37,2013-04-24 04:56:00,
2013-04-23 21:01:00,38.8,35.8,30.30,NNW,344,0.0,0.0,89,0.01,CLR,,0.23,WeatherDisplay:10.37,2013-04-24 05:01:00,
2013-04-23 21:06:00,38.7,35.7,30.30,NNW,345,0.0,0.0,89,0.01,CLR,,0.23,WeatherDisplay:10.37,2013-04-24 05:06:00,
2013-04-23 21:11:00,38.6,35.6,30.30,NNW,345,0.0,0.0,89,0.01,CLR,,0.23,WeatherDisplay:10.37,2013-04-24 05:11:00,
2013-04-23 21:16:00,38.5,35.5,30.30,NNW,344,0.0,0.0,89,0.01,CLR,,0.23,WeatherDisplay:10.37,2013-04-24 05:16:00,
2013-04-23 21:21:00,38.5,35.5,30.30,NNW,345,0.0,0.0,89,0.01,CLR,,0.23,WeatherDisplay:10.37,2013-04-24 05:21:00,
2013-04-23 21:26:00,38.4,35.4,30.30,NNW,345,0.0,0.0,89,0.01,CLR,,0.23,WeatherDisplay:10.37,2013-04-24 05:26:00,
2013-04-23 21:31:00,38.3,35.6,30.31,NNW,344,0.0,0.0,90,0.01,CLR,,0.23,WeatherDisplay:10.37,2013-04-24 05:31:00,
2013-04-23 21:36:00,38.1,35.4,30.31,NNW,344,0.0,0.0,90,0.01,CLR,,0.23,WeatherDisplay:10.37,2013-04-24 05:36:00,
2013-04-23 21:41:00,37.9,35.2,30.31,NNW,345,0.0,0.0,90,0.01,CLR,,0.23,WeatherDisplay:10.37,2013-04-24 05:41:00,
2013-04-23 21:46:00,37.8,35.1,30.31,NNW,345,0.0,0.0,90,0.00,CLR,,0.23,WeatherDisplay:10.37,2013-04-24 05:46:00,
2013-04-23 21:51:00,37.6,35.2,30.31,NNW,345,0.0,0.0,91,0.00,CLR,,0.23,WeatherDisplay:10.37,2013-04-24 05:51:00,
2013-04-23 21:56:00,37.7,35.3,30.30,NNW,345,0.0,0.0,91,0.00,CLR,,0.23,WeatherDisplay:10.37,2013-04-24 05:56:00,
2013-04-23 22:01:00,37.7,35.3,30.31,NNW,345,0.0,0.0,91,0.00,CLR,,0.23,WeatherDisplay:10.37,2013-04-24 06:01:00,
2013-04-23 22:06:00,37.8,35.1,30.31,NNW,345,0.0,0.0,90,0.00,CLR,,0.23,WeatherDisplay:10.37,2013-04-24 06:06:00,
2013-04-23 22:11:00,37.7,35.0,30.31,NNW,344,0.0,0.0,90,0.00,CLR,,0.23,WeatherDisplay:10.37,2013-04-24 06:11:00,
2013-04-23 22:16:00,37.6,34.9,30.31,NNW,344,0.0,0.0,90,0.00,CLR,,0.23,WeatherDisplay:10.37,2013-04-24 06:16:00,
2013-04-23 22:21:00,37.5,34.8,30.31,NNW,345,0.0,0.0,90,0.00,CLR,,0.23,WeatherDisplay:10.37,2013-04-24 06:21:00,
2013-04-23 22:26:00,37.5,34.8,30.31,NNW,345,0.0,0.0,90,0.00,CLR,,0.23,WeatherDisplay:10.37,2013-04-24 06:26:00,
2013-04-23 22:31:00,37.5,34.8,30.31,NNW,344,0.0,0.0,90,0.00,CLR,,0.23,WeatherDisplay:10.37,2013-04-24 06:31:00,
2013-04-23 22:36:00,37.5,34.8,30.31,NNW,345,0.0,0.0,90,0.00,CLR,,0.23,WeatherDisplay:10.37,2013-04-24 06:36:00,
2013-04-23 22:41:00,37.5,34.8,30.31,NNW,345,0.0,0.0,90,0.00,CLR,,0.23,WeatherDisplay:10.37,2013-04-24 06:41:00,
2013-04-23 22:46:00,37.5,34.8,30.30,NNW,345,0.0,0.0,90,0.00,CLR,,0.23,WeatherDisplay:10.37,2013-04-24 06:46:00,
2013-04-23 22:51:00,37.5,34.8,30.30,NNW,344,0.0,0.0,90,0.00,CLR,,0.23,WeatherDisplay:10.37,2013-04-24 06:51:00,
2013-04-23 22:56:00,37.5,34.8,30.30,NNW,345,0.0,0.0,90,0.00,CLR,,0.23,WeatherDisplay:10.37,2013-04-24 06:56:00,
2013-04-23 23:01:00,37.5,34.8,30.30,NNW,345,0.0,0.0,90,0.00,CLR,,0.23,WeatherDisplay:10.37,2013-04-24 07:01:00,
2013-04-23 23:06:00,37.4,34.7,30.29,NNW,344,0.0,0.0,90,0.00,CLR,,0.23,WeatherDisplay:10.37,2013-04-24 07:06:00,
2013-04-23 23:11:00,37.2,34.5,30.30,NNW,345,0.0,0.0,90,0.00,CLR,,0.23,WeatherDisplay:10.37,2013-04-24 07:11:00,
2013-04-23 23:16:00,37.1,34.4,30.29,NNW,345,0.0,0.0,90,0.00,CLR,,0.23,WeatherDisplay:10.37,2013-04-24 07:16:00,
2013-04-23 23:21:00,37.2,34.8,30.29,NNW,345,0.0,0.0,91,0.00,CLR,,0.23,WeatherDisplay:10.37,2013-04-24 07:21:00,
2013-04-23 23:26:00,37.3,34.9,30.29,NNW,345,0.0,0.0,91,0.00,CLR,,0.23,WeatherDisplay:10.37,2013-04-24 07:26:00,
2013-04-23 23:31:00,37.1,34.4,30.29,NNW,345,0.0,0.0,90,0.00,CLR,,0.23,WeatherDisplay:10.37,2013-04-24 07:31:00,
2013-04-23 23:36:00,36.9,34.5,30.29,NNW,345,0.0,0.0,91,0.00,CLR,,0.23,WeatherDisplay:10.37,2013-04-24 07:36:00,
2013-04-23 23:41:00,37.0,34.6,30.29,NNW,345,0.0,0.0,91,0.00,CLR,,0.23,WeatherDisplay:10.37,2013-04-24 07:41:00,
2013-04-23 23:46:00,36.9,34.5,30.29,NNW,345,0.0,0.0,91,0.00,CLR,,0.23,WeatherDisplay:10.37,2013-04-24 07:46:00,
2013-04-23 23:51:00,36.8,34.4,30.29,NNW,345,0.0,0.0,91,0.00,CLR,,0.23,WeatherDisplay:10.37,2013-04-24 07:51:00,
2013-04-23 23:56:00,36.8,34.4,30.29,NNW,345,0.0,0.0,91,0.00,CLR,,0.23,WeatherDisplay:10.37,2013-04-24 07:56:00,